sat.trackr.live / text

‹ back to catalog

STARLINK-35401

NORAD 66067 · 2025-235K

PAYLOAD ACTIVE UNKNOWN

§ Identity

Operator
Country
US
Launch date
2025-10-19
Launch site
AFETR
Launch vehicle
Mass (kg)
RCS (m²)

Purposes: comms

External: N2YO · Heavens-Above · Gunter

§ Orbital elements

Epoch: 2026-09-20T14:05:07.133568Z

Period
93.85 min
Inclination
53.1611°
Eccentricity
0.0001984
Mean motion
15.34404139 rev/d
Perigee alt
461.3 km
Apogee alt
464.0 km
Semi-major
6,840.8 km
B*
5.3821e-4
RAAN
56.9774°
Arg perigee
91.4408°
Mean anomaly
268.6822°
Rev number
5,277

§ Raw data

STARLINK-354011 66067U 25235K   26263.58688812  .00017854  00000+0  53821-3 0  99932 66067  53.1611  56.9774 0001984  91.4408 268.6822 15.34404139 52779

JSON: /api/v1/satellites/66067 · /tle

For live sub-satellite position, see the globe view (requires WebGL).

§ Visibility from observer

Set your observer location to see the next 7 days of passes ≥ 10°. The values pass through the URL so the page stays shareable.

No JS? Fill the form by hand. The geolocation button needs JavaScript.